Weather History for LICZ - December, 2013

Change the Weather History Date:

Tuesday, December 31, 2013

  Actual Average Record
Temperature  
Mean Temperature 49 °F -  
Max Temperature 52 °F 60 °F 68 °F (2001)
Min Temperature 46 °F 41 °F 33 °F (1998)
Degree Days  
Heating Degree Days 16    
Moisture  
Dew Point 49 °F    
Average Humidity 99    
Maximum Humidity 100    
Minimum Humidity 93    
Precipitation  
Precipitation 0.16 in 0.08 in - ()
Sea Level Pressure  
Sea Level Pressure 30.02 in    
Wind  
Wind Speed 7 mph ()    
Max Wind Speed 14 mph    
Max Gust Speed -    
Visibility 5.3 miles    
Events Rain    
Averages and records for this station are not official NWS values.
T = Trace of Precipitation, MM = Missing Value Source: Averaged Metar Reports

Daily Weather History Graph

Daily Weather History Graph

Search for Another Location

Airport or City:

Trip Planner

Search our weather history database for the weather conditions in past years. The results will help you decide how hot, cold, wet, or windy it might be!

Date:

Astronomy

Dec. 31, 2013 Rise Set
Actual Time 7:14 AM CET 4:52 PM CET
Civil Twilight 6:45 AM CET 5:21 PM CET
Nautical Twilight 6:12 AM CET 5:54 PM CET
Astronomical Twilight 5:41 AM CET 6:25 PM CET
Moon 5:50 AM CET (12/31) 4:08 PM CET (12/31)
Length of Visible Light 10h 36m
Length of Day
9h 37m
Waning Crescent, 2% of the Moon is Illuminated
Dec 31
Waning Crescent
Jan 1
New
Jan 8
First Quarter
Jan 16
Full
Jan 24
Last Quarter

Hourly Weather History & Observations

Time (CET) Temp. Windchill Dew Point Humidity Pressure Visibility Wind Dir Wind Speed Gust Speed Precip Events Conditions
12:55 AM 51.8 °F - 51.8 °F 100% 30.06 in 4.3 mi NW 4.6 mph - N/A Rain Light Rain
1:00 AM 53 °F - 53 °F 98% 30.08 in 4 mi NW 4.6 mph - - Rain Light Rain
1:55 AM 50.0 °F - 50.0 °F 100% 30.06 in 3.7 mi West 11.5 mph - N/A Rain Light Rain
2:55 AM 50.0 °F - 50.0 °F 100% 30.06 in 3.7 mi NW 13.8 mph - N/A Rain Light Rain
3:55 AM 50.0 °F - 50.0 °F 100% 30.06 in 3.7 mi West 9.2 mph - N/A Rain Light Rain
4:00 AM 49 °F - 49 °F 100% 30.08 in 4 mi West 9.2 mph - - Rain Light Rain
4:55 AM 46.4 °F 41.9 °F 46.4 °F 100% 30.06 in 3.7 mi West 9.2 mph - N/A Rain Light Rain
5:55 AM 46.4 °F 44.3 °F 46.4 °F 100% 30.06 in 3.7 mi West 4.6 mph - N/A Rain Light Rain
6:55 AM 46.4 °F 41.9 °F 46.4 °F 100% 30.04 in 6.2 mi WSW 9.2 mph - N/A Rain Light Rain
7:00 AM 46 °F - 46 °F 97% 30.06 in 7 mi WSW 9.2 mph - - Rain Light Rain
7:55 AM 46.4 °F 43.5 °F 46.4 °F 100% 30.04 in 6.2 mi West 5.8 mph - N/A   Light Drizzle
8:55 AM 48.2 °F - 48.2 °F 100% 30.04 in 6.2 mi West 5.8 mph - N/A   Light Drizzle
9:55 AM 50.0 °F - 50.0 °F 100% 30.04 in 6.2 mi West 6.9 mph - N/A   Light Drizzle
10:00 AM 51 °F - 50 °F 93% 30.06 in 5 mi West 6.9 mph - - Rain Light Drizzle
10:55 AM 51.8 °F - 50.0 °F 94% 30.04 in 6.2 mi West 9.2 mph - N/A   Light Drizzle
11:55 AM 51.8 °F - 50.0 °F 94% 30.04 in 6.2 mi West 11.5 mph - N/A   Light Drizzle
12:55 PM 50.0 °F - 50.0 °F 100% 30.04 in 5.0 mi WNW 6.9 mph - N/A   Light Drizzle
1:00 PM 51 °F - 50 °F 93% 30.04 in 4 mi WNW 6.9 mph - - Rain Light Drizzle
1:55 PM 50.0 °F - 50.0 °F 100% 30.01 in 5.0 mi West 9.2 mph - N/A   Light Drizzle
2:55 PM 50.0 °F - 50.0 °F 100% 30.01 in 6.2 mi West 13.8 mph - N/A   Light Drizzle
3:55 PM 50.0 °F - 48.2 °F 94% 29.98 in 5.6 mi West 9.2 mph - N/A   Light Drizzle
4:00 PM 50 °F - 49 °F 95% 30.00 in 3 mi West 9.2 mph - - Rain Light Drizzle
4:55 PM 50.0 °F - 50.0 °F 100% 29.98 in 5.0 mi West 9.2 mph - N/A Rain Light Rain
5:55 PM 50.0 °F - 50.0 °F 100% 29.98 in 6.2 mi WSW 6.9 mph - N/A Rain Light Rain
6:55 PM 48.2 °F - 48.2 °F 100% 29.98 in 6.2 mi SW 2.3 mph - N/A   Mostly Cloudy
7:00 PM 49 °F - 48 °F 97% 30.00 in 7 mi SW 2.3 mph - - Rain Light Rain
7:55 PM 50.0 °F - 50.0 °F 100% 29.98 in 6.2 mi West 6.9 mph - N/A   Mostly Cloudy
8:55 PM 50.0 °F - 50.0 °F 100% 29.98 in 6.2 mi WNW 4.6 mph - N/A   Mostly Cloudy
9:55 PM 50.0 °F - 50.0 °F 100% 29.98 in 6.2 mi WNW 2.3 mph - N/A   Mostly Cloudy
10:00 PM 50 °F - 49 °F 97% 29.99 in 6 mi WNW 2.3 mph - -   Partly Cloudy
10:55 PM 50.0 °F - 50.0 °F 100% 29.98 in 6.2 mi East 4.6 mph - N/A   Mostly Cloudy
11:55 PM 48.2 °F - 48.2 °F 100% 29.98 in 6.2 mi ESE 2.3 mph - N/A   Mostly Cloudy